Probability
6 6 5 5 5 5 4 3 4 4 4 4 4 4 3 1 0 0 0 0 0 0 0 0 0 0 0 0 0 0 0 0 0 0 0 0 1 1
10 8 7 8 8 6 5 5 6 5 4 4 5 4 3 2 1 1 0 0 0 0 0 0 0 0 0 0 0 0 0 0 0 0 0 0 0 1
13 11 10 10 9 7 6 7 8 8 6 7 7 5 3 3 3 2 1 0 0 0 0 0 0 0 0 0 0 0 0 0 0 0 0 0 0 0
13 12 11 9 8 7 6 8 10 11 10 10 8 6 4 3 3 3 1 1 0 0 0 0 0 0 0 0 0 0 0 0 0 0 0 0 0 0
13 12 11 9 7 6 7 9 11 12 12 11 9 7 5 3 3 3 3 2 1 1 0 0 0 0 0 0 0 0 0 0 0 0 0 0 0 0
13 12 11 9 8 8 10 11 11 11 10 10 10 9 6 4 3 3 3 3 3 2 1 1 0 0 0 0 0 0 0 0 0 0 0 0 0 0
13 13 12 11 10 10 11 11 10 10 9 10 10 9 6 4 3 3 3 3 3 3 3 2 1 0 1 1 0 0 0 0 0 0 0 0 0 0
14 14 14 12 11 11 10 10 9 9 9 9 9 9 6 4 4 3 3 3 3 3 3 3 2 2 2 1 0 0 0 0 0 0 0 0 0 0
15 15 14 12 11 11 10 9 9 9 8 8 8 7 6 5 4 3 3 3 2 1 1 3 4 3 3 2 0 0 0 0 0 0 0 0 0 0
12 11 11 10 9 9 9 9 9 9 9 7 5 4 4 3 3 3 3 3 2 1 1 3 4 4 3 2 1 0 0 0 0 0 0 0 0 0
7 6 6 6 6 6 7 7 8 9 8 6 3 1 1 1 2 2 2 2 2 1 1 2 4 4 4 4 3 2 0 0 0 0 0 0 0 0
4 3 3 3 3 3 4 5 6 7 6 4 2 1 0 0 0 0 0 1 1 1 0 1 2 3 5 6 5 3 1 0 0 0 0 0 0 0
3 3 2 1 1 1 1 3 3 4 4 3 3 2 1 0 0 0 0 0 0 0 0 0 1 2 4 6 5 3 2 1 0 0 0 0 0 0
3 2 1 0 0 0 0 1 1 1 3 3 3 3 2 1 0 0 0 0 0 0 0 0 0 1 2 3 2 2 1 1 1 0 0 0 0 0
2 1 0 0 0 0 0 0 0 1 2 3 3 3 2 1 0 0 0 0 0 0 0 0 0 0 1 2 1 0 0 1 1 0 0 0 0 0
1 0 0 0 0 0 0 0 0 0 1 3 3 3 2 1 0 0 0 0 0 0 0 0 0 0 1 1 0 1 1 1 1 0 0 0 0 0
0 0 1 1 2 1 0 0 0 1 1 3 3 3 2 1 0 0 0 0 0 0 0 0 0 0 0 0 1 2 2 2 2 1 0 0 0 0
1 1 1 2 2 1 0 0 1 2 3 3 3 3 1 0 0 0 0 0 0 0 0 0 0 0 0 0 1 2 2 2 3 3 2 0 0 0
2 1 1 1 1 1 0 0 1 2 3 3 3 2 1 0 0 0 0 0 0 0 0 0 0 0 0 0 0 1 1 1 2 4 4 2 1 0
1 1 0 0 0 0 0 0 1 2 3 3 3 2 1 0 0 0 0 0 0 0 0 0 0 0 0 0 0 0 0 0 1 2 3 2 1 1
0 0 0 0 0 0 0 0 1 2 3 3 3 1 0 0 0 0 0 0 0 0 0 0 0 0 0 0 0 0 0 0 0 1 1 1 1 1
0 0 0 0 0 0 0 0 1 2 3 3 2 1 0 0 0 0 0 0 0 0 0 0 0 0 0 0 0 0 0 0 0 0 0 0 0 1
0 0 0 0 0 0 0 0 1 2 3 3 1 0 0 0 0 0 0 0 0 0 0 0 0 0 0 0 0 0 0 0 0 0 0 0 0 0
Wind_Speed
3 3 3 3 3 3 3 3 3 3 4 3 2 2 2 2 4 3 4 5 5 6 6 6 6 7 7 6 6 6 6 6 6 6 6 6 7 7
2 3 3 2 2 2 3 3 3 3 3 2 2 3 2 3 3 4 4 5 5 5 6 6 6 6 6 6 6 5 5 5 6 6 5 5 5 6
2 3 3 3 2 2 2 2 2 3 4 3 2 2 2 3 2 3 3 3 3 4 5 5 5 5 5 6 5 5 5 5 5 5 5 5 5 6
4 3 3 2 3 2 2 2 3 3 4 5 3 2 3 3 2 3 3 3 3 4 5 5 5 5 5 5 5 5 5 5 5 5 5 5 5 5
4 4 4 3 3 3 3 3 3 3 3 3 4 2 2 2 2 2 3 2 3 3 4 4 5 5 5 5 5 5 5 4 4 4 4 4 5 5
4 4 4 4 5 4 3 4 3 2 2 3 3 3 2 2 2 2 2 2 3 3 2 2 3 4 5 5 6 5 5 5 5 5 5 5 5 5
4 4 5 5 6 4 3 3 3 2 2 2 3 2 2 2 2 2 3 3 3 2 2 2 2 2 3 4 6 6 6 6 6 6 6 6 5 6
4 4 5 5 5 5 5 5 5 4 4 3 3 4 4 3 3 2 2 2 3 1 2 3 2 3 3 3 5 6 6 6 7 6 6 6 6 6
4 3 3 3 4 4 5 5 5 6 6 5 5 5 5 4 3 3 3 3 4 2 2 3 2 3 3 3 6 7 7 7 6 6 6 6 6 6
3 3 3 4 4 3 3 4 4 5 6 5 5 6 5 4 5 4 4 3 3 2 2 3 3 3 4 3 5 6 6 6 6 6 6 6 6 6
3 3 3 3 4 3 3 4 4 4 4 5 6 5 5 4 3 2 2 2 3 3 2 3 3 3 3 3 4 4 5 5 5 5 5 5 5 5
3 2 3 4 4 3 3 3 4 4 3 3 3 3 3 3 4 4 4 3 2 3 2 3 2 2 2 2 2 2 2 3 4 5 5 5 4 3
2 2 2 4 4 4 3 3 4 4 2 2 2 2 2 2 2 3 3 4 3 3 2 2 2 2 2 2 2 2 1 1 1 2 3 4 4 4
2 2 2 4 4 3 2 2 3 2 1 1 1 2 2 2 2 2 3 3 4 4 4 3 3 3 2 2 2 2 1 1 1 1 1 1 3 4
2 3 3 3 2 2 2 2 1 1 1 1 2 2 2 2 2 2 2 2 3 4 4 5 4 3 3 3 3 2 2 1 1 1 1 0 1 1
2 2 2 2 1 2 2 2 1 1 1 2 2 2 2 2 2 2 2 2 2 3 3 4 5 5 4 4 3 3 2 2 1 1 1 1 1 1
1 1 1 1 2 2 2 2 1 1 1 1 2 2 2 2 2 1 1 1 2 3 3 1 1 2 3 2 2 3 2 2 2 1 1 1 1 1
1 0 1 1 1 2 2 2 2 2 2 2 2 2 2 2 2 2 1 2 2 3 2 1 0 0 0 1 2 3 2 2 2 2 2 2 2 2
1 1 1 1 2 2 2 2 2 2 2 1 2 2 2 2 2 2 2 2 2 2 2 1 1 1 1 2 1 2 2 2 1 1 2 2 3 2
1 1 2 2 2 2 2 2 2 2 1 1 2 2 2 2 2 2 2 2 2 2 2 1 1 1 2 2 2 2 2 2 1 1 1 1 2 2
2 2 2 2 2 2 2 2 2 1 2 2 2 2 2 1 1 2 1 2 2 1 2 2 2 1 1 0 1 1 1 1 1 1 1 1 2 1
3 3 3 2 2 2 2 2 2 2 2 2 2 2 2 1 2 1 1 1 1 1 1 1 1 1 0 1 1 1 2 2 2 1 1 1 2 2
3 2 2 2 2 2 2 2 2 2 2 2 2 2 1 1 1 1 1 1 1 1 1 1 1 1 1 0 1 1 2 2 2 2 2 3 1 2
Wind_Direction
234 233 237 241 229 229 217 208 222 266 283 269 263 255 238 233 239 243 247 244 244 243 238 239 241 240 235 237 239 238 237 236 237 239 242 246 246 247
231 232 243 250 243 240 229 224 217 227 259 273 264 274 262 255 246 244 249 252 244 240 239 240 242 244 235 230 232 234 236 237 233 229 234 243 247 247
253 242 248 248 249 251 240 233 232 222 248 271 269 279 256 259 274 263 260 255 255 242 242 239 239 240 232 229 227 227 230 236 239 236 237 244 249 250
250 245 254 252 252 256 249 248 242 231 237 264 275 275 265 264 268 269 278 273 267 256 245 243 238 230 222 222 221 221 224 232 238 240 241 246 251 253
250 248 253 252 256 260 255 252 246 243 233 248 265 263 269 271 281 278 277 281 277 267 253 243 237 232 227 224 223 220 221 228 235 239 241 245 250 256
255 252 254 249 249 254 255 251 248 247 246 248 260 262 263 266 251 264 281 278 279 283 276 264 255 245 238 234 229 225 224 227 231 234 238 241 246 251
259 258 256 256 258 256 260 250 236 240 247 251 259 262 257 252 255 256 268 284 284 267 276 278 271 261 251 244 234 229 230 233 235 236 238 240 240 242
260 262 261 257 262 269 269 257 237 235 239 242 252 253 257 251 254 249 258 275 281 273 268 281 267 260 258 250 241 233 234 237 239 239 240 240 238 238
260 262 275 278 269 266 275 272 258 254 240 235 244 250 250 239 232 242 243 246 254 270 265 272 274 272 270 260 244 240 239 239 240 239 238 238 238 236
267 261 261 271 268 266 272 273 268 262 251 243 240 250 251 238 223 229 236 246 268 266 239 260 274 275 282 271 262 249 244 240 239 237 235 236 237 236
279 276 273 273 287 290 271 270 279 284 283 268 259 258 261 252 221 203 213 226 264 264 226 242 262 278 275 271 268 257 248 242 238 234 230 230 231 231
289 289 296 293 293 291 264 258 268 281 296 301 292 287 272 245 213 212 213 219 245 258 226 224 245 260 272 267 285 281 257 250 241 233 230 227 222 222
290 298 296 304 302 293 271 256 255 265 270 266 277 286 290 278 251 233 224 219 227 242 227 214 241 242 256 284 293 289 270 277 257 247 232 226 217 210
283 291 298 311 314 305 286 281 277 274 243 251 262 272 277 277 272 260 251 246 245 247 238 220 232 230 240 259 274 298 305 295 259 259 259 242 231 226
283 293 307 320 326 326 317 317 310 280 245 258 267 273 277 278 281 276 273 260 260 255 242 235 233 230 232 238 250 264 288 298 270 266 297 281 247 231
305 323 328 332 342 335 337 329 312 282 254 258 268 279 288 286 278 272 273 280 284 283 263 241 234 226 229 233 233 246 246 249 265 276 293 308 296 264
304 2 18 11 5 358 353 343 328 318 292 284 278 289 292 287 290 289 274 273 267 277 285 285 242 233 235 230 233 241 248 259 263 252 224 273 286 279
155 125 328 327 326 321 320 318 309 303 302 300 293 283 278 273 278 285 264 258 270 276 275 285 270 190 274 275 229 237 251 259 265 256 223 231 271 287
166 246 274 287 294 293 292 291 294 297 298 293 286 285 282 279 276 281 282 271 270 275 269 246 211 202 246 286 297 215 240 263 274 278 262 250 261 279
223 251 266 274 278 280 283 285 294 306 307 294 286 285 282 275 270 273 276 278 277 284 290 285 223 221 230 253 279 298 237 235 252 271 282 273 270 278
237 247 254 258 262 263 268 272 277 283 294 286 281 282 280 271 272 272 279 293 291 287 284 293 300 282 235 177 273 314 339 326 230 252 275 269 282 282
239 243 250 253 254 252 257 263 267 274 282 277 278 280 275 264 260 261 267 273 282 287 298 318 356 34 108 162 266 305 321 346 5 359 339 270 267 268
243 242 246 256 259 262 262 261 257 263 266 266 266 264 258 254 253 244 253 250 257 275 299 348 15 28 28 30 307 309 320 326 337 1 1 359 319 274